Powrót do katalogu

YAOGAN-50 02

AktywnyMilitariaLEO
NORAD 68196·PAYLOAD·🇨🇳 China

Wystrzelony Mar 15, 2026 z Taiyuan Satellite Launch Center

Loading…

Następne Przeloty (najbliższe 24 godziny)

TLE

ŚwieżeSource: Space-Track

Epoka: Sep 14, 2026, 21:17 UTC

1 68196U 26051A   26257.88711172  .00000304  00000-0  10607-3 0  9995
2 68196 141.9928  40.8053 0000804 293.7261  66.3374 13.83256030 25421

Śledź YAOGAN-50 02 w czasie rzeczywistym z AllMySat

Download on the App Store